Satellite: NOAA-19
Catalog number: 33591
Epoch time:      12039.76092142
Element set:    0256
Inclination:      098.8528 deg
RA of node:       341.2349 deg
Eccentricity:    0.0014608
Arg of perigee:   029.9831 deg
Mean anomaly:     330.2198 deg
Mean motion:   14.11289824 rev/day
Decay rate:       1.34e-06 rev/day^2
Epoch rev:           15475
Checksum:              313

/EX
SB KEPS @ AMSAT  $ORB12040.M
Orbital Elements  12040.MISC

HR AMSAT ORBITAL ELEMENTS FOR MANNED AND MISCELLANEOUS SATELLITES
FROM WA5QGD FORT WORTH,TX February 9, 2012
Send SUBSCRIBE KEPS/UNSUBSCRIBE KEPS to majordomo@amsat.org only
BID: ORB12040.M
TO ALL RADIO AMATEURS BT

Satellite: HUBBLE
Catalog number: 20580
Epoch time:      12039.98254251
Element set:     940
Inclination:      028.4702 deg
RA of node:       268.8502 deg
Eccentricity:    0.0003398
Arg of perigee:   124.3941 deg
Mean anomaly:     235.6882 deg
Mean motion:   15.02169671 rev/day
Decay rate:      1.145e-05 rev/day^2
Epoch rev:           99528
Checksum:              304

Satellite: ISS
Catalog number: 25544
Epoch time:      12040.76880787
Element set:     978
Inclination:      051.6420 deg
RA of node:       046.1921 deg
Eccentricity:    0.0020281
Arg of perigee:   025.8807 deg
Mean anomaly:     332.5641 deg
Mean motion:   15.58787466 rev/day
Decay rate:     1.0337e-04 rev/day^2
Epoch rev:           75798
Checksum:              324

Satellite: CO-58
Catalog number: 28895
Epoch time:      12040.63079737
Element set:      94
Inclination:      097.9334 deg
RA of node:       272.4216 deg
Eccentricity:    0.0017499
Arg of perigee:   192.1318 deg
Mean anomaly:     167.9471 deg
Mean motion:   14.60475585 rev/day
Decay rate:       3.24e-06 rev/day^2
Epoch rev:           33489
Checksum:              347

Satellite: FALCON
Catalog number: 30776
Epoch time:      12039.93980681
Element set:    0279
Inclination:      035.4343 deg
RA of node:       345.6840 deg
Eccentricity:    0.0003238
Arg of perigee:   320.1638 deg
Mean anomaly:     039.8842 deg
Mean motion:   15.06574739 rev/day
Decay rate:      3.351e-05 rev/day^2
Epoch rev:           27074
Checksum:              312

Satellite: MAST
Catalog number: 31126
Epoch time:      12040.54424121
Element set:     379
Inclination:      097.8805 deg
RA of node:       059.1508 deg
Eccentricity:    0.0094506
Arg of perigee:   151.0513 deg
Mean anomaly:     209.5965 deg
Mean motion:   14.54028005 rev/day
Decay rate:       3.38e-06 rev/day^2
Epoch rev:           25557
Checksum:              279

Satellite: CAPE1
Catalog number: 31130
Epoch time:      12040.67694457
Element set:     391
Inclination:      097.8887 deg
RA of node:       055.7501 deg
Eccentricity:    0.0102111
Arg of perigee:   162.7559 deg
Mean anomaly:     197.7154 deg
Mean motion:   14.52762755 rev/day
Decay rate:       4.64e-06 rev/day^2
Epoch rev:           25511
Checksum:              303

Satellite: COMPASS
Catalog number: 32787
Epoch time:      12039.78988501
Element set:    0219
Inclination:      097.8176 deg
RA of node:       103.9363 deg
Eccentricity:    0.0016463
Arg of perigee:   122.1492 deg
Mean anomaly:     238.1328 deg
Mean motion:   14.83486707 rev/day
Decay rate:      1.063e-05 rev/day^2
Epoch rev:           20462
Checksum:              311

Satellite: AAUSAT2
Catalog number: 32788
Epoch time:      12040.59494043
Element set:     210
Inclination:      097.8215 deg
RA of node:       105.0410 deg
Eccentricity:    0.0016350
Arg of perigee:   120.2706 deg
Mean anomaly:     240.0130 deg
Mean motion:   14.83767654 rev/day
Decay rate:      1.354e-05 rev/day^2
Epoch rev:           20476
Checksum:              255

Satellite: DO-64
Catalog number: 32789
Epoch time:      12040.68851948
Element set:     225
Inclination:      097.8303 deg
RA of node:       106.7096 deg
Eccentricity:    0.0015988
Arg of perigee:   117.7025 deg
Mean anomaly:     242.5801 deg
Mean motion:   14.84909300 rev/day
Decay rate:      2.932e-05 rev/day^2
Epoch rev:           20480
Checksum:              316

Satellite: CO-66
Catalog number: 32791
Epoch time:      12040.67728373
Element set:     212
Inclination:      097.8183 deg
RA of node:       104.6394 deg
Eccentricity:    0.0016755
Arg of perigee:   118.2785 deg
Mean anomaly:     242.0142 deg
Mean motion:   14.83000392 rev/day
Decay rate:      1.394e-05 rev/day^2
Epoch rev:           20469
Checksum:              300

Satellite: RS-30
Catalog number: 32953
Epoch time:      12040.91102933
Element set:     507
Inclination:      082.5019 deg
RA of node:       014.8995 deg
Eccentricity:    0.0017518
Arg of perigee:   226.3727 deg
Mean anomaly:     133.5904 deg
Mean motion:   12.43020780 rev/day
Decay rate:        1.0e-07 rev/day^2
Epoch rev:           16862
Checksum:              271

Satellite: TACSAT-3
Catalog number: 35001
Epoch time:      12039.71592599
Element set:    0870
Inclination:      040.4474 deg
RA of node:       158.7091 deg
Eccentricity:    0.0005624
Arg of perigee:   058.2516 deg
Mean anomaly:     301.8857 deg
Mean motion:   15.72506809 rev/day
Decay rate:     8.3376e-04 rev/day^2
Epoch rev:           15396
Checksum:              321

